Location: Derby
(52.9213°N, 1.4761°W)
Time: 15:30:58
(UTC+01:00)

Vanguard 1 - Pass Details

Date: 26 May 2025
Orbit: 649 x 3822 km, 34.3° (Epoch: 14 June)

Event Time Altitude Azimuth Distance (km) Brightness Sun altitude
Rises 13:12:10 0° 174° (S) 7,889 15.1 58.3°
Reaches altitude 10° 13:24:23 10° 148° (SSE) 6,860 14.9 58.0°
Maximum altitude 13:29:55 11° 133° (SE) 6,576 14.7 57.9°
Drops below altitude 10° 13:35:09 10° 119° (ESE) 6,468 14.5 57.7°
Sets 13:45:07 0° 92° (E) 6,805 14.3 57.3°
